This is the latest recevied weather packets stored in our database for station/object N3WMC. If no packets are shown the sender has not sent any weather packets the latest 10 day(s).
| Time | Temp. | Humidity | Pressure | Rain* | Wind** | Luminosity | Snow |
|---|---|---|---|---|---|---|---|
| 1788033739 | 27.78° C | 40% | 1023.6 hPa | 0 mm | - | 357 W/m² | - |
| 1788033433 | 27.78° C | 39% | 1023.7 hPa | 0 mm | - | 366 W/m² | - |
| 1788033128 | 27.22° C | 41% | 1023.7 hPa | 0 mm | - | 374 W/m² | - |
| 1788032824 | 27.22° C | 40% | 1023.8 hPa | 0 mm | - | 382 W/m² | - |
| 1788032524 | 27.22° C | 40% | 1023.8 hPa | 0 mm | - | 394 W/m² | - |
| 1788032219 | 27.78° C | 39% | 1023.8 hPa | 0 mm | - | 405 W/m² | - |
| 1788031915 | 27.78° C | 42% | 1023.7 hPa | 0 mm | - | 418 W/m² | - |
| 1788031615 | 27.78° C | 40% | 1023.7 hPa | 0 mm | - | 429 W/m² | - |
| 1788031315 | 27.78° C | 40% | 1023.9 hPa | 0 mm | - | 434 W/m² | - |
| 1788031013 | 27.22° C | 39% | 1023.9 hPa | 0 mm | - | 447 W/m² | - |
| 1788030708 | 27.78° C | 41% | 1023.7 hPa | 0 mm | - | 463 W/m² | - |
| 1788030403 | 27.22° C | 39% | 1023.8 hPa | 0 mm | - | 464 W/m² | - |
| 1788030099 | 27.78° C | 38% | 1023.8 hPa | 0 mm | - | 478 W/m² | - |
| 1788029798 | 27.78° C | 38% | 1024 hPa | 0 mm | - | 486 W/m² | - |
| 1788029493 | 27.78° C | 40% | 1024.1 hPa | 0 mm | - | 492 W/m² | - |
| 1788029192 | 28.33° C | 40% | 1024.1 hPa | 0 mm | - | 501 W/m² | - |
| 1788028886 | 27.22° C | 44% | 1024.4 hPa | 0 mm | - | 511 W/m² | - |
| 1788028581 | 27.22° C | 42% | 1024.4 hPa | 0 mm | - | 520 W/m² | - |
| 1788028276 | 27.78° C | 41% | 1024.4 hPa | 0 mm | - | 526 W/m² | - |
| 1788027973 | 26.67° C | 43% | 1024.4 hPa | 0 mm | - | 535 W/m² | - |
| 1788027673 | 27.22° C | 42% | 1024.7 hPa | 0 mm | - | 552 W/m² | - |
| 1788027367 | 27.22° C | 42% | 1024.7 hPa | 0 mm | - | 553 W/m² | - |
| 1788027066 | 26.67° C | 43% | 1024.6 hPa | 0 mm | - | 530 W/m² | - |
| 1788026761 | 27.22° C | 47% | 1024.9 hPa | 0 mm | - | 548 W/m² | - |
| 1788026457 | 27.22° C | 47% | 1024.9 hPa | 0 mm | - | 566 W/m² | - |
* Rain latest hour (hover to see other rain measurements)
** Current wind speed in m/s (hover to see current wind gust speed)